Regional Weather Roundup
Issued by NWS Glasgow, MT

Home | Current Version | Previous Version | Text Only | Print | Product List | Glossary On
Versions: 1 2 3 4 5 6 7 8 9 10 11 12 13 14 15 16 17 18 19 20 21 22 23 24 25 26 27
000
ASUS45 KGGW 280315
RWRGGW
HOURLY REGIONAL WEATHER ROUNDUP FOR NORTHEAST MONTANA
NATIONAL WEATHER SERVICE GLASGOW MONTANA
900 PM MDT MON MAR 27 2017

NOTE: "FAIR" INDICATES FEW OR NO CLOUDS BELOW 12,000 FEET WITH NO
SIGNIFICANT WEATHER AND/OR OBSTRUCTIONS TO VISISBILITY.

NORTHEAST MONTANA


CITY           SKY/WX    TMP DP  RH WIND       PRES   REMARKS
GLASGOW        CLOUDY    45  34  65 E13       29.93R
PLENTYWOOD       N/A     40  35  83 NE10        N/A
WOLF POINT     CLOUDY    44  37  76 NE8       29.95R
JORDAN           N/A     46  33  60 N9        29.91R
WINNETT          N/A     45  34  65 SW3G14      N/A
SIDNEY         CLOUDY    50  39  66 NE8       29.95R
GLENDIVE       CLOUDY    48  37  65 N12       29.92R
MALTA            N/A     42  36  79 E7G16       N/A
SCOBEY           N/A     44  32  62 NE6       29.96R

FORT PECK REPORTS


CITY           SKY/WX    TMP DP  RH WIND       PRES   REMARKS
FORT PECK        N/A     48  38  68 NE13        N/A

SOUTHEAST MONTANA


CITY           SKY/WX    TMP DP  RH WIND       PRES   REMARKS
BILLINGS       CLOUDY    52  33  48 N10       29.91R
MILES CITY     CLOUDY    51  36  56 NE7       29.88R
BAKER          CLOUDY    50  33  52 E7        29.92R
LIVINGSTON     LGT RAIN  40  36  86 SW12      30.00R

CENTRAL MONTANA


CITY           SKY/WX    TMP DP  RH WIND       PRES   REMARKS
HAVRE          PTCLDY    46  36  68 N9        29.93R
LEWISTOWN      CLOUDY    42  28  57 W5        29.95R
GREAT FALLS    CLOUDY    43  30  60 SW12      29.98R
CUT BANK       CLOUDY    41  30  65 W17       29.96R
HELENA         CLOUDY    45  30  55 W15       30.02R
BUTTE          CLOUDY    37  26  64 N12       30.03R
BOZEMAN        CLOUDY    43  36  76 SW6       30.02R

WESTERN MONTANA


CITY           SKY/WX    TMP DP  RH WIND       PRES   REMARKS
MISSOULA       MOCLDY    39  35  86 SW3       30.11R
KALISPELL      NOT AVBL

NORTH DAKOTA


CITY           SKY/WX    TMP DP  RH WIND       PRES   REMARKS
WILLISTON      LGT RAIN  45  37  73 NE14      30.00R
DICKINSON      CLEAR     43  35  73 NE10      29.92R
MINOT          FOG       36  35  96 E7        30.03R VSB 3/4
BISMARCK       CLEAR     46  34  62 NE5       29.98R

SOUTHERN SASKATCHEWAN


CITY           SKY/WX    TMP DP  RH WIND       PRES   REMARKS
REGINA         CLOUDY    36  36 100 E15       30.04R
ESTEVAN        CLOUDY    34  34 100 SE2       30.05S FOG
SWIFT CURRENT  CLOUDY    39  34  81 SE10      29.95R





USA.gov is the U.S. government's official web portal to all federal, state and local government web resources and services.